Temp
83 82 74 75 75 75 75 75 75 75 76 77 77 77 77 77 77 76 76 77 77 79 80 79 79 79 79 79 78 77 76 76 76 76 77 78 78 77 77 76 75 84 77
85 82 73 74 75 75 75 75 75 76 76 77 77 77 77 77 76 76 76 77 77 79 79 79 79 79 79 77 76 75 75 75 75 75 76 78 78 78 77 75 76 81 76
82 82 79 74 75 75 75 75 75 76 76 77 77 77 77 77 76 76 76 76 77 79 79 79 79 79 78 76 75 75 75 75 74 75 76 85 84 77 77 75 75 76 76
81 82 81 73 74 75 75 75 75 76 76 76 76 76 76 77 76 76 76 76 77 78 79 79 79 78 76 75 74 74 74 74 74 74 82 84 84 77 76 75 76 76 76
80 82 81 73 73 74 74 74 75 75 75 75 76 76 76 77 76 76 75 75 77 78 79 79 79 77 75 74 73 73 73 73 73 76 82 82 83 79 77 76 75 75 75
80 81 75 72 73 74 74 74 74 74 74 74 75 76 76 76 76 76 75 75 77 78 78 79 78 75 73 73 73 73 73 72 72 83 82 80 81 78 77 76 75 75 74
80 80 80 71 72 73 74 74 74 74 73 74 74 75 75 76 76 75 74 75 76 77 77 77 75 74 73 72 72 72 72 72 82 81 81 80 81 75 78 76 74 74 74
80 79 79 74 72 72 73 73 72 72 73 73 73 74 75 75 74 74 74 74 75 75 75 75 73 73 72 72 72 71 70 70 78 81 81 81 76 74 77 76 74 74 74
78 77 78 79 77 71 70 71 71 71 72 72 72 73 73 73 73 73 73 74 74 73 73 73 73 72 72 72 71 70 69 70 81 82 81 81 73 74 77 76 75 74 73
77 77 77 77 77 78 78 70 70 70 70 71 72 71 71 71 72 72 72 73 73 73 73 73 72 72 72 71 70 69 68 69 81 81 81 82 71 74 76 76 75 74 74
77 77 77 76 77 77 77 77 71 71 70 70 72 70 71 80 80 79 75 72 72 71 72 72 71 70 70 70 69 69 68 81 82 81 81 72 71 74 76 75 74 74 73
79 78 77 77 76 76 77 77 78 77 77 78 78 77 78 78 79 79 75 70 70 70 69 70 70 69 70 81 80 71 79 80 80 79 80 68 71 74 75 75 74 74 73
79 79 78 76 75 76 77 78 75 73 75 75 75 76 76 75 75 77 78 77 78 73 77 75 76 77 79 80 80 79 79 78 80 78 76 68 70 73 75 75 74 74 73
77 78 76 75 75 75 78 76 73 71 73 74 73 74 73 75 74 75 75 75 75 79 78 75 75 75 75 78 78 77 77 77 79 76 75 66 68 72 75 76 75 74 73
70 68 66 70 73 73 73 73 73 71 71 73 72 73 72 73 73 72 74 74 74 74 78 76 74 72 73 74 75 76 77 76 76 75 75 66 66 69 73 75 76 76 75
62 61 63 62 63 67 69 69 69 70 71 71 71 72 71 72 73 73 72 71 70 70 70 74 74 73 73 73 74 72 73 75 76 75 74 75 65 66 69 72 75 76 76
59 59 58 59 60 60 61 62 62 65 66 67 67 67 70 72 73 73 72 71 72 71 70 71 71 73 73 73 72 73 72 73 75 76 74 75 75 63 65 68 72 73 74
57 56 56 56 55 55 57 60 64 64 63 61 62 64 65 66 66 68 68 68 69 68 68 69 69 68 68 69 71 71 73 70 73 75 77 74 75 76 68 64 67 69 71
54 54 54 53 53 54 57 61 62 61 62 61 61 62 61 62 63 65 66 70 71 68 67 65 64 66 68 68 68 69 69 69 71 74 75 75 75 77 77 67 64 65 66
53 52 52 52 51 53 56 58 61 61 61 61 59 58 57 58 59 60 63 62 64 66 68 66 65 66 68 71 70 70 70 70 71 69 72 72 73 74 77 74 74 72 63
51 51 50 50 49 50 51 53 55 54 57 59 57 55 55 55 56 57 58 60 62 61 63 65 67 66 64 67 66 68 67 68 68 68 69 70 70 71 72 73 71 71 74
49 49 49 48 48 48 49 50 51 52 55 56 54 54 53 53 54 56 55 56 58 59 61 63 63 63 66 69 66 66 62 65 64 66 67 67 67 70 71 72 71 69 71
47 47 47 48 47 46 46 48 50 52 53 53 50 51 50 51 52 53 54 54 55 56 56 58 61 59 60 67 67 65 59 61 61 63 63 63 63 67 69 70 70 69 70
44 45 45 46 46 46 46 45 44 43 43 45 46 48 49 50 50 51 52 52 52 53 53 55 58 57 58 59 64 67 65 63 58 58 60 61 62 63 67 68 70 70 70
44 43 43 43 43 43 45 45 44 43 44 46 45 45 47 48 49 50 50 49 49 50 51 51 53 55 57 56 58 65 63 61 63 61 60 59 62 66 67 68 69 70 70
46 44 43 41 42 41 42 43 43 41 41 41 42 42 44 46 46 47 46 46 47 47 48 48 49 49 50 53 54 56 62 64 61 61 61 63 63 64 66 67 70 72 72
MSLP
1009.16 1009.54 1010.20 1010.64 1011.02 1011.41 1011.64 1011.47 1011.52 1011.42 1011.32 1011.41 1011.65 1011.89 1012.15 1012.52 1012.89 1013.34 1013.74 1014.07 1014.30 1014.54 1014.84 1015.25 1015.54 1015.61 1015.59 1015.61 1015.74 1015.87 1016.00 1016.17 1016.25 1016.28 1016.39 1016.50 1016.62 1016.77 1016.87 1016.96 1017.11 1016.77 1017.28
1009.13 1009.39 1009.98 1010.43 1010.87 1011.21 1011.64 1011.76 1011.82 1011.99 1011.72 1011.64 1011.83 1012.01 1012.23 1012.49 1012.86 1013.29 1013.70 1014.00 1014.29 1014.58 1014.97 1015.38 1015.65 1015.77 1015.89 1015.96 1016.07 1016.18 1016.35 1016.47 1016.51 1016.50 1016.51 1016.60 1016.74 1016.92 1017.02 1017.22 1017.24 1017.26 1017.51
1009.15 1009.38 1009.84 1010.31 1010.63 1010.93 1011.29 1011.65 1011.92 1012.17 1012.20 1012.09 1012.13 1012.23 1012.35 1012.51 1012.91 1013.28 1013.64 1013.95 1014.23 1014.55 1014.84 1015.29 1015.57 1015.77 1015.96 1016.12 1016.27 1016.42 1016.46 1016.55 1016.58 1016.61 1016.61 1016.21 1016.54 1017.11 1017.39 1017.56 1017.73 1017.82 1017.87
1009.27 1009.53 1009.82 1010.41 1010.64 1010.98 1011.21 1011.51 1011.95 1012.20 1012.35 1012.33 1012.28 1012.26 1012.39 1012.68 1012.99 1013.37 1013.68 1013.96 1014.23 1014.44 1014.69 1014.96 1015.29 1015.63 1015.80 1016.14 1016.34 1016.48 1016.55 1016.62 1016.60 1016.64 1016.54 1016.53 1016.72 1017.34 1017.66 1017.85 1017.96 1018.04 1018.26
1009.66 1009.86 1010.21 1010.55 1010.65 1010.95 1011.38 1011.84 1012.10 1012.28 1012.43 1012.53 1012.58 1012.61 1012.59 1012.73 1013.04 1013.31 1013.64 1013.97 1014.24 1014.44 1014.61 1014.83 1015.06 1015.40 1015.76 1016.04 1016.30 1016.52 1016.55 1016.65 1016.71 1016.79 1016.64 1016.80 1016.92 1017.39 1017.67 1017.86 1017.92 1018.09 1018.28
1009.98 1010.19 1010.60 1010.73 1010.76 1011.00 1011.35 1011.87 1012.28 1012.51 1012.60 1012.71 1012.78 1012.80 1012.92 1012.90 1013.06 1013.35 1013.61 1013.94 1014.20 1014.46 1014.66 1014.89 1015.00 1015.30 1015.55 1015.90 1016.21 1016.43 1016.63 1016.74 1016.86 1016.50 1016.73 1017.02 1017.18 1017.49 1017.67 1017.87 1018.03 1018.19 1018.44
1010.26 1010.39 1010.74 1011.01 1011.07 1011.15 1011.35 1011.66 1012.02 1012.37 1012.53 1012.64 1012.85 1013.04 1013.15 1013.30 1013.34 1013.39 1013.63 1013.81 1014.10 1014.36 1014.77 1014.98 1015.22 1015.41 1015.57 1015.76 1016.01 1016.28 1016.48 1016.63 1016.46 1016.65 1016.82 1017.04 1017.27 1017.62 1017.67 1017.80 1018.03 1018.25 1018.42
1010.45 1010.56 1010.73 1010.96 1011.18 1011.32 1011.55 1011.68 1011.88 1012.11 1012.35 1012.56 1012.79 1013.05 1013.23 1013.22 1013.40 1013.58 1013.71 1013.92 1014.16 1014.40 1014.60 1014.99 1015.27 1015.47 1015.62 1015.67 1015.78 1015.99 1016.33 1016.51 1016.48 1016.48 1016.70 1016.86 1017.16 1017.50 1017.70 1017.65 1018.00 1018.34 1018.68
1010.56 1010.73 1010.72 1010.86 1011.11 1011.45 1011.72 1012.00 1012.05 1012.14 1012.40 1012.59 1012.62 1012.83 1013.17 1013.54 1013.67 1013.90 1014.04 1014.12 1014.33 1014.63 1014.74 1014.83 1015.10 1015.38 1015.53 1015.76 1015.87 1015.94 1016.06 1016.35 1016.26 1016.29 1016.54 1016.75 1017.15 1017.37 1017.42 1017.60 1017.83 1018.06 1018.45
1010.64 1010.69 1010.82 1010.92 1011.15 1011.38 1011.63 1012.07 1012.25 1012.40 1012.54 1012.72 1012.86 1012.92 1013.19 1013.52 1013.85 1014.03 1014.21 1014.39 1014.42 1014.59 1014.93 1015.06 1015.14 1015.29 1015.52 1015.69 1015.89 1016.02 1016.07 1016.24 1016.12 1016.24 1016.39 1016.47 1017.06 1017.13 1017.21 1017.40 1017.70 1017.97 1018.20
1010.51 1010.63 1010.77 1010.89 1010.91 1011.19 1011.44 1011.80 1012.10 1012.21 1012.46 1012.81 1013.12 1013.34 1013.60 1013.38 1013.59 1013.82 1014.00 1014.26 1014.57 1014.70 1014.83 1015.21 1015.43 1015.57 1015.73 1015.88 1016.07 1016.11 1016.16 1015.70 1015.69 1015.87 1016.17 1016.53 1016.84 1016.97 1017.08 1017.19 1017.45 1017.70 1018.03
1010.22 1010.29 1010.52 1010.71 1010.95 1011.15 1011.29 1011.65 1011.77 1011.88 1012.05 1012.21 1012.58 1012.87 1013.13 1013.33 1013.42 1013.68 1013.86 1014.26 1014.36 1014.64 1014.74 1015.11 1015.56 1015.94 1016.04 1015.62 1015.72 1016.25 1015.93 1015.67 1015.66 1015.65 1015.80 1016.31 1016.57 1016.69 1016.79 1016.86 1017.02 1017.30 1017.67
1010.54 1010.27 1010.40 1010.70 1010.67 1010.87 1010.99 1011.26 1011.69 1012.06 1011.94 1012.17 1012.37 1012.53 1012.85 1013.06 1013.19 1013.40 1013.47 1013.86 1014.19 1014.53 1014.58 1014.96 1015.30 1015.53 1015.36 1015.30 1015.42 1015.46 1015.55 1015.65 1015.54 1015.68 1015.72 1016.09 1016.26 1016.47 1016.58 1016.53 1016.73 1017.01 1017.34
1010.85 1010.72 1010.90 1011.01 1010.94 1010.96 1010.94 1011.25 1011.67 1011.78 1011.87 1012.00 1012.24 1012.33 1012.44 1012.72 1013.06 1013.15 1013.32 1013.45 1013.72 1013.78 1014.14 1014.57 1014.66 1015.01 1015.32 1015.17 1015.21 1015.30 1015.39 1015.48 1015.42 1015.63 1015.66 1016.05 1016.14 1016.20 1016.32 1016.41 1016.51 1016.80 1016.99
1011.79 1012.05 1012.20 1011.84 1011.60 1011.44 1011.39 1011.43 1011.61 1011.85 1011.93 1011.90 1012.04 1012.26 1012.30 1012.43 1012.78 1013.11 1013.08 1013.30 1013.35 1013.68 1013.70 1013.92 1014.35 1014.68 1014.77 1015.01 1014.85 1014.86 1014.86 1014.96 1015.14 1015.39 1015.53 1015.72 1015.93 1016.03 1016.02 1016.08 1016.12 1016.44 1016.64
1013.32 1013.39 1013.36 1013.03 1012.69 1011.91 1011.79 1011.78 1011.82 1011.84 1011.96 1012.03 1011.96 1011.99 1012.09 1012.16 1012.33 1012.60 1012.94 1013.17 1013.46 1013.04 1013.38 1013.55 1013.72 1014.33 1014.50 1014.42 1014.41 1014.48 1014.45 1014.33 1014.45 1014.67 1015.00 1015.17 1015.45 1015.62 1015.71 1015.72 1015.73 1015.89 1016.15
1014.81 1014.97 1014.56 1014.24 1014.07 1013.38 1013.08 1012.69 1012.49 1012.52 1012.55 1012.43 1012.56 1012.46 1012.31 1012.10 1012.00 1012.11 1012.36 1012.49 1012.44 1013.05 1012.76 1013.39 1013.30 1013.69 1014.08 1014.25 1014.12 1013.91 1013.87 1013.96 1013.80 1013.87 1014.29 1014.58 1014.78 1015.20 1015.29 1015.32 1015.39 1015.55 1015.79
1016.14 1015.98 1015.87 1015.44 1015.05 1014.60 1014.18 1013.88 1013.27 1013.11 1013.10 1013.50 1013.63 1013.64 1013.46 1013.15 1012.95 1012.32 1012.13 1011.90 1012.06 1011.91 1012.13 1012.77 1013.85 1013.83 1013.46 1013.81 1013.59 1013.54 1013.43 1013.47 1013.42 1013.36 1013.44 1013.85 1014.12 1014.33 1014.59 1014.94 1015.12 1015.38 1015.49
1017.55 1017.23 1016.86 1016.58 1016.09 1015.78 1015.26 1014.78 1014.43 1014.28 1013.99 1014.18 1014.37 1014.49 1014.54 1014.14 1013.94 1013.29 1012.77 1012.02 1011.98 1012.08 1012.17 1011.73 1013.24 1013.41 1013.42 1013.20 1013.20 1012.77 1012.92 1013.12 1013.09 1012.79 1012.76 1013.04 1013.40 1013.61 1013.79 1014.25 1014.68 1014.97 1015.08
1018.58 1018.27 1018.06 1017.78 1017.42 1016.74 1016.10 1015.55 1015.12 1015.00 1014.88 1014.94 1015.04 1015.28 1015.40 1015.15 1014.66 1014.18 1013.57 1013.09 1012.26 1011.85 1011.70 1011.83 1012.13 1012.48 1011.89 1011.75 1012.03 1011.76 1011.91 1012.31 1012.41 1012.49 1012.26 1012.41 1012.56 1012.87 1013.08 1013.44 1013.78 1014.17 1014.59
1019.18 1019.04 1018.93 1018.65 1018.44 1017.81 1017.15 1016.47 1015.87 1015.77 1015.69 1015.57 1015.84 1016.03 1015.85 1015.80 1015.27 1014.38 1013.63 1013.25 1012.95 1012.51 1012.05 1011.95 1011.84 1011.40 1011.61 1011.63 1011.86 1011.64 1011.28 1011.40 1011.97 1011.42 1012.29 1012.01 1012.43 1012.32 1012.70 1013.06 1013.23 1013.34 1013.44
1019.81 1019.83 1019.70 1019.61 1019.42 1019.02 1018.58 1018.43 1017.95 1017.23 1016.43 1016.08 1016.40 1016.45 1016.32 1016.10 1015.85 1015.19 1014.74 1014.14 1013.84 1013.43 1012.91 1012.40 1011.85 1011.50 1011.20 1011.20 1010.91 1010.89 1010.31 1010.92 1011.31 1010.63 1011.76 1011.72 1012.26 1012.10 1012.48 1012.63 1012.77 1012.90 1012.91
1020.08 1020.20 1020.23 1020.28 1020.19 1019.98 1019.58 1018.96 1018.35 1017.75 1017.24 1016.66 1016.80 1016.73 1016.75 1016.35 1016.37 1015.89 1015.35 1014.80 1014.11 1013.96 1013.50 1013.03 1012.58 1011.89 1011.10 1010.30 1010.05 1009.97 1009.85 1009.53 1010.44 1010.49 1011.30 1010.94 1011.73 1012.63 1012.63 1012.28 1012.03 1012.10 1012.11
1020.63 1020.74 1020.71 1020.65 1020.62 1020.40 1020.15 1019.64 1019.27 1018.82 1018.27 1018.13 1017.73 1017.20 1016.77 1016.40 1016.67 1016.21 1015.65 1015.11 1014.70 1014.24 1013.77 1013.19 1012.78 1012.41 1011.44 1010.28 1009.67 1009.25 1009.19 1009.52 1009.83 1010.10 1010.55 1010.05 1011.55 1011.96 1011.61 1011.03 1011.02 1011.08 1011.44
1021.34 1021.33 1021.11 1020.97 1020.97 1020.84 1020.58 1020.25 1019.75 1019.38 1019.01 1018.42 1017.99 1017.30 1017.03 1016.72 1016.79 1016.38 1016.00 1015.49 1014.89 1014.48 1013.73 1013.70 1013.19 1012.61 1012.09 1011.26 1010.17 1008.92 1008.84 1009.12 1009.20 1009.46 1009.37 1009.67 1010.24 1010.19 1009.86 1009.40 1009.26 1009.94 1010.57
1021.59 1021.67 1021.56 1021.26 1021.32 1021.36 1021.05 1020.69 1020.24 1019.83 1019.36 1018.90 1018.58 1017.93 1017.38 1016.72 1016.67 1016.34 1016.10 1015.54 1014.95 1014.58 1013.75 1013.29 1013.14 1012.69 1012.02 1011.29 1010.59 1009.69 1008.34 1007.74 1007.57 1008.34 1008.35 1008.10 1008.13 1008.63 1008.48 1008.14 1007.99 1008.42 1009.10
Wind_Speed
5 9 12 13 12 10 5 4 4 7 11 15 17 18 19 19 19 18 16 15 13 14 15 14 10 9 10 10 9 9 8 7 8 8 9 11 12 13 12 10 10 13 11
4 11 12 15 15 13 9 6 3 3 9 13 16 17 18 19 19 18 17 15 13 14 15 14 10 9 9 8 8 7 7 7 7 8 9 11 11 12 13 9 6 12 11
4 12 13 12 15 15 13 10 7 4 6 11 14 15 17 18 18 18 17 16 15 14 15 14 12 10 9 8 8 7 7 7 8 8 8 8 10 12 12 10 7 9 9
6 10 11 11 12 13 13 12 9 7 7 8 12 14 16 17 17 17 17 15 14 16 16 16 14 12 9 8 8 8 7 7 8 8 7 6 8 10 11 11 10 10 9
6 8 8 9 10 10 11 10 9 8 8 8 9 12 15 17 17 17 16 15 14 15 17 16 15 13 10 9 8 8 7 7 7 7 6 6 5 9 11 11 12 12 10
5 6 7 7 9 10 10 10 10 9 8 8 9 11 13 15 16 16 15 15 15 15 16 15 13 12 11 10 8 9 8 7 7 6 6 6 6 7 9 9 9 10 11
4 5 6 5 7 9 10 11 11 11 10 10 9 9 11 13 14 15 15 15 15 14 14 12 11 11 10 10 11 10 10 8 8 6 6 6 6 5 9 11 10 11 11
1 4 6 8 7 7 8 9 9 10 11 11 10 9 9 11 11 12 13 13 12 12 11 10 10 10 10 11 11 11 9 9 7 6 6 6 6 8 8 10 11 11 11
1 4 4 6 8 6 5 6 8 9 10 10 11 11 9 8 8 10 11 11 11 10 10 11 11 11 11 10 9 10 10 9 7 5 6 5 7 8 10 7 11 12 12
1 3 5 5 6 6 6 5 6 6 7 8 8 9 9 7 7 9 8 9 10 10 9 10 11 11 10 9 8 9 8 7 9 6 5 4 7 10 11 8 9 11 12
3 4 5 7 8 7 7 7 8 8 6 5 5 4 5 8 11 12 10 7 9 8 9 8 8 8 7 6 6 7 7 6 8 6 5 6 8 10 10 9 9 11 12
6 6 7 7 7 7 6 7 6 7 7 8 8 9 8 9 8 8 7 8 8 8 9 7 7 5 6 7 6 6 7 7 7 6 5 9 9 11 11 13 12 13 14
8 7 6 7 7 7 6 4 3 3 4 5 8 9 8 7 7 7 6 6 7 8 8 8 8 7 11 8 7 7 8 8 5 5 6 9 11 12 12 12 11 10 12
8 9 6 5 6 5 4 4 3 3 4 4 6 8 6 6 6 8 6 7 7 7 9 8 6 9 9 10 10 9 9 7 5 5 6 6 8 11 13 15 12 11 13
10 13 14 13 7 4 5 3 3 3 4 4 4 5 5 6 7 5 5 5 6 6 8 9 8 8 9 11 10 11 10 10 9 5 5 6 9 10 13 16 18 15 14
15 16 15 16 14 11 5 2 0 1 3 4 4 5 6 5 6 6 5 5 4 6 6 9 9 9 10 10 12 12 12 10 10 9 6 7 9 10 11 16 17 14 15
15 16 18 15 16 14 10 7 5 5 5 4 3 3 3 2 6 7 6 6 7 6 7 7 7 6 9 10 14 12 10 12 11 11 8 7 7 10 10 12 11 10 10
16 18 17 16 17 15 13 8 7 8 6 6 7 7 10 8 8 4 3 5 4 5 5 4 5 6 6 7 9 9 10 8 12 12 10 8 8 7 8 11 10 10 10
17 17 18 18 18 16 13 9 9 11 9 8 8 8 12 11 11 8 7 9 9 5 4 7 6 8 8 9 9 7 7 9 11 9 13 11 11 10 7 7 11 11 11
16 17 16 15 18 15 10 7 6 8 8 8 9 9 13 10 10 8 6 7 7 3 6 8 13 13 13 10 8 8 8 8 9 8 11 8 10 11 11 10 8 9 13
17 17 18 17 17 14 12 9 5 7 6 6 9 13 13 12 13 11 8 9 9 6 5 7 9 10 8 6 6 8 6 8 12 7 7 8 9 9 9 9 6 6 7
15 16 16 16 16 13 10 9 5 7 5 4 7 9 12 14 13 10 10 8 8 7 8 7 7 9 11 12 11 9 8 7 7 7 6 5 4 3 8 10 10 9 9
14 14 14 14 15 14 14 9 7 4 5 5 9 9 10 11 11 12 12 9 8 7 7 9 9 9 8 9 14 8 4 10 4 3 7 5 4 5 7 9 11 11 11
10 10 11 12 14 13 14 11 13 8 8 8 9 9 9 10 12 11 11 10 10 7 9 8 8 10 9 9 7 10 13 2 1 4 3 3 6 10 14 9 10 11 13
11 11 11 12 13 13 13 12 9 9 8 8 9 13 11 9 10 11 10 11 11 9 9 11 11 10 9 9 9 9 10 10 8 9 9 5 8 13 14 13 12 10 13
10 11 10 11 11 12 11 11 12 12 12 10 11 10 10 9 9 10 11 11 10 9 10 10 12 12 11 11 9 9 8 8 10 12 12 12 14 11 14 14 15 12 12
Wind_Direction
189 148 138 130 127 126 119 93 97 129 139 141 143 144 144 146 142 143 147 152 157 153 150 148 140 126 121 115 105 113 115 117 124 126 130 136 141 139 137 129 143 135 135
141 163 149 142 139 138 139 127 91 119 137 140 145 147 148 148 147 149 152 158 160 159 154 158 152 127 114 108 99 106 115 124 130 138 139 143 146 148 151 141 146 126 137
204 168 161 152 147 144 142 141 143 140 134 136 142 146 150 150 152 154 157 162 164 163 159 160 161 149 135 123 118 121 133 137 147 154 159 165 153 161 151 135 132 142 141
160 159 158 151 146 145 145 147 149 145 135 142 149 150 153 155 157 159 160 164 168 166 166 171 168 163 155 141 141 146 154 152 163 161 175 166 154 160 151 153 153 151 142
135 156 154 151 146 143 143 145 149 152 149 150 159 159 158 160 162 163 164 166 171 166 173 178 175 160 165 161 159 158 166 165 165 182 173 173 161 162 168 175 165 166 168
139 161 153 162 155 152 151 153 154 159 168 170 169 171 168 166 167 167 167 168 172 172 176 181 174 164 169 168 169 168 168 175 186 183 178 164 190 151 176 175 177 173 173
154 173 182 165 172 169 166 166 165 169 175 181 187 181 174 174 173 171 172 171 174 175 181 180 168 173 177 171 169 172 175 173 208 181 184 181 200 194 190 194 181 180 178
254 204 199 191 194 192 189 179 177 178 181 184 186 190 193 183 179 178 177 177 177 177 176 172 172 181 188 182 172 171 179 188 201 195 201 193 186 202 216 212 186 185 183
68 223 219 214 208 204 202 199 187 186 192 195 192 190 192 194 187 187 188 184 181 183 183 174 177 186 192 195 184 175 187 190 218 214 202 208 188 216 216 198 187 194 185
253 219 222 223 220 219 222 211 204 204 205 207 207 199 194 188 192 195 194 197 192 189 190 186 182 187 199 201 191 186 194 191 218 218 215 210 197 206 212 203 196 195 192
238 233 223 222 217 215 220 224 204 199 196 198 219 215 205 212 207 206 205 194 206 197 193 194 188 193 201 215 207 190 193 217 212 212 213 192 209 210 218 228 211 199 196
261 233 223 222 221 218 220 224 220 215 213 212 212 215 214 216 214 222 216 206 209 207 208 193 194 187 203 224 213 200 223 227 223 213 221 190 220 235 247 228 214 204 204
294 271 236 228 221 219 222 209 208 223 217 214 210 213 218 210 212 214 219 215 225 211 226 212 212 214 221 224 228 222 229 229 233 231 235 196 208 232 246 232 219 209 206
288 289 313 296 255 242 238 223 218 218 223 217 218 208 205 210 208 218 217 213 209 211 220 220 213 210 225 230 235 235 232 236 241 245 241 212 222 233 241 238 236 223 213
14 18 9 6 338 298 250 220 222 216 239 229 208 215 206 214 208 209 217 216 208 214 227 220 223 216 212 226 231 235 240 235 240 242 257 214 230 233 238 240 236 226 216
33 30 24 26 14 17 11 32 62 280 245 233 213 210 207 203 210 216 204 210 229 204 217 232 214 223 226 224 234 233 238 239 239 232 235 253 224 237 234 238 237 221 217
36 32 29 23 16 21 19 29 31 26 21 27 43 31 28 268 230 220 203 209 215 231 218 245 259 227 234 233 235 234 233 241 240 237 230 235 247 223 233 235 237 232 231
38 33 29 25 21 12 11 16 37 42 56 40 29 23 14 12 7 291 227 220 206 173 162 194 243 234 229 228 237 239 244 231 242 245 238 226 231 242 219 223 229 239 240
34 30 29 26 24 15 8 9 32 35 40 37 36 35 20 14 360 339 307 276 273 243 186 144 259 285 241 220 228 219 233 243 244 240 241 235 232 235 229 213 222 236 240
35 36 34 28 20 13 12 6 18 28 27 29 30 24 14 4 358 347 332 337 335 305 224 213 222 216 250 228 222 220 217 234 233 227 234 228 228 227 229 223 217 227 232
38 33 29 27 23 19 14 3 359 8 8 18 14 8 6 358 353 348 349 343 339 323 292 256 249 245 239 234 252 245 229 220 238 212 234 222 234 230 244 239 219 222 224
36 31 28 28 23 23 18 1 340 330 347 12 10 1 5 354 348 345 343 336 337 320 302 275 261 248 249 238 237 240 247 213 230 189 219 205 239 265 260 255 246 235 234
35 28 26 25 23 23 13 7 359 335 336 354 355 351 352 354 342 341 336 330 331 323 305 303 287 268 256 240 223 231 198 233 162 164 172 150 121 254 262 251 245 239 229
39 31 30 25 22 19 15 13 13 4 350 346 334 336 339 355 340 335 329 330 327 321 306 305 302 297 291 271 233 222 240 170 228 190 208 139 202 251 247 227 245 249 242
20 22 26 22 23 16 11 10 5 359 346 337 337 339 336 337 329 328 330 328 322 314 311 305 297 288 284 276 281 239 219 229 220 227 236 198 215 232 237 244 237 235 240
24 18 16 22 20 12 7 4 5 359 349 344 339 335 334 331 322 323 323 318 312 302 303 304 296 288 283 276 282 292 260 220 210 224 229 231 222 225 226 232 235 232 226